Track OPS 3367 A now! 10-day predictions OPS 3367 A is classified as:
1 00734U 64002B 21023.78282902 -.00000005 00000-0 16934-4 0 9995 2 00734 99.1283 216.7923 0015302 131.1637 229.0866 14.28890647967320